Location: Rock Island IL
(41.5000°N, 90.5500°W)
Time: 17:06:28
(UTC-05:00)

Daily predictions for brighter satellites

Satellite Brightness Start Highest point End
(mag) Time Altitude Azimuth Time Altitude Azimuth Time Altitude Azimuth
Cosmos 2219 Rocket 4.4 19:10:08 10° WSW 19:14:50 26° NW 19:19:35 10° N
USA 215 4.0 19:09:54 10° ENE 19:15:39 32° SE 19:21:22 10° S
CZ-2C R/B 4.0 19:11:58 10° S 19:16:37 41° W 19:21:10 10° NNW
COSMO-SKYMED 1 2.7 19:16:33 10° N 19:20:54 81° WNW 19:25:14 10° SSW
Meteor 1-28 Rocket 3.4 19:19:12 10° NNE 19:22:48 45° E 19:26:21 10° S
FREGAT/IRIS 3.2 19:20:42 10° SE 19:23:35 38° ENE 19:26:29 10° N
Helios 1B rocket 3.4 19:20:39 10° NE 19:24:09 26° E 19:27:38 10° SSE
Abrixas 3.2 19:21:31 10° SSW 19:24:19 37° SE 19:26:59 11° ENE
Cosmos 2278 Rocket 4.4 19:20:10 10° NW 19:25:02 30° WSW 19:29:52 10° SSW
Cosmos 1072 Rocket 4.4 19:22:33 10° S 19:28:39 78° E 19:34:46 10° N
IDEFIX/ARIANE 42P 4.4 19:26:00 10° SSW 19:30:46 36° W 19:35:36 10° NNW
Cosmos 1805 3.5 19:28:07 10° SSE 19:31:52 46° E 19:35:40 10° NNE
Cosmos 1346 4.0 19:30:46 10° NNE 19:33:22 26° ENE 19:35:56 10° SE
Aureole 2 Rocket 4.2 19:29:25 10° SW 19:33:37 47° WNW 19:37:44 10° N
GPS 2-04 Rocket1 4.0 19:31:48 10° SW 19:34:29 21° SSE 19:36:40 13° ESE
Gbstr 26 Del rocket 4.2 19:32:38 10° S 19:36:16 26° SE 19:39:48 13° ENE
TELKOM 3 4.2 19:33:58 10° NW 19:36:44 32° NNE 19:38:02 18° ENE
Cosmos 1943 Rocket 4.0 19:34:45 10° NNE 19:37:22 13° NE 19:39:37 11° ENE
Cosmos 1766 Rocket 3.4 19:34:32 10° N 19:38:56 73° E 19:43:14 10° SSE
Cosmos 1076 Rocket 3.5 19:34:36 10° N 19:38:58 89° ENE 19:43:19 10° S
Cosmos 1953 2.3 19:35:27 10° S 19:39:21 58° E 19:43:17 10° NNE
Cosmos 2369 Rocket 3.2 19:36:54 10° N 19:41:44 28° NE 19:45:20 15° ESE
Meteor 1-29 3.7 19:38:45 10° NNE 19:41:55 31° E 19:45:02 10° SSE
ATLAS CENTAUR R/B 4.3 19:39:41 10° WNW 19:42:02 15° WSW 19:44:19 10° SW
NOAA 12 4.1 19:36:48 10° SSE 19:42:03 85° ENE 19:47:22 10° NNW
Cosmos 1943 4.1 19:38:50 10° SSE 19:43:25 26° ESE 19:48:00 10° NE
SAR-Lupe-1 4.3 19:40:36 10° S 19:44:09 72° WSW 19:47:43 10° NNW
Cosmos-2242 3.0 19:43:18 10° S 19:47:37 65° E 19:51:59 10° NNE
Cosmos 1603 3.7 19:43:43 10° SSW 19:49:24 69° ESE 19:55:09 10° NNE
NOSS 3-2 (A) 4.2 19:44:07 10° SW 19:50:06 56° NW 19:56:40 10° NNE
Cosmos 2151 4.4 19:48:57 10° NNE 19:51:55 18° ENE 19:52:06 18° ENE
OAO 3 Rocket 4.1 19:49:58 10° WSW 19:54:19 36° S 19:57:20 18° SE
Cosmos 1733 4.2 19:51:14 10° SSE 19:54:29 26° E 19:57:45 10° NNE
Cosmos 1452 Rocket 3.8 19:50:44 10° NNW 19:55:59 71° WSW 20:01:11 10° S
Cosmos 1470 3.3 19:52:53 10° SSE 19:56:24 34° E 19:59:55 10° NNE
Spot 1 4.3 19:58:11 10° SSE 20:02:53 80° WSW 20:07:21 10° NNW
Cosmos 2034 Rocket 4.1 19:57:26 10° S 20:03:43 83° W 20:10:06 10° N
Cosmos 1674 2.9 20:00:16 10° N 20:04:02 47° E 20:06:20 21° SE
ASTEX 1 3.6 19:59:42 10° NNE 20:04:24 44° E 20:09:04 10° SSE
SJ-6B 4.3 20:04:28 10° S 20:08:14 40° W 20:12:06 10° NNW
Cosmos 1500 Rocket 3.6 20:07:08 10° N 20:11:32 57° E 20:14:49 17° SSE
Cosmos 1842 Rocket 3.5 20:07:42 10° S 20:11:56 56° E 20:16:12 10° NNE
Cosmos 1420 Rocket 4.0 20:10:48 10° NNW 20:16:07 85° WSW 20:21:27 10° SSE
CENTAUR R/B 2.5 20:12:29 10° SSW 20:18:20 56° ESE 20:24:54 10° NE
ATLAS 5 CENTAUR R/B 3.2 20:15:40 10° WSW 20:20:12 39° NW 20:25:07 10° NNE
FengYun 1-2 T 4.2 20:16:34 10° SSE 20:22:04 83° WSW 20:27:36 10° NNW
ERBS 4.4 20:21:00 10° NNW 20:23:13 17° NNE 20:23:13 17° NNE
Meteor 1-16 Rocket 4.5 20:22:42 33° ESE 20:23:49 37° E 20:28:41 10° NNE
ALOS 2.1 20:20:32 14° SSE 20:24:29 81° ENE 20:29:11 10° N
Helios 1A 3.6 20:22:44 10° S 20:26:51 56° W 20:31:01 10° NNW
ISS -3.4 20:23:58 10° WSW 20:27:13 80° NW 20:27:25 74° NNE
Spot 2 Rocket 4.3 20:25:45 10° S 20:30:38 51° W 20:35:34 10° NNW
Cosmos 1544 4.3 20:27:58 10° SSW 20:31:33 43° W 20:35:09 10° N
Cosmos 1048 Rocket 4.2 20:29:52 10° SSW 20:35:09 71° WNW 20:40:24 10° NNE
Resurs 1-3 4.4 20:32:58 10° S 20:37:13 50° W 20:41:31 10° NNW
SL-8 R/B 3.8 20:36:06 10° WSW 20:40:53 71° NNW 20:42:21 43° NE
Envisat 4.0 20:42:35 29° NE 20:42:35 29° NE 20:46:03 10° N
Resurs 01 Rocket 3.2 20:39:04 10° SSW 20:43:07 34° W 20:47:11 10° NNW
Cosmos 1174 3.9 20:43:13 10° SSW 20:47:59 84° WNW 20:48:25 70° NNE
Cosmos 1328 4.1 20:44:35 10° N 20:47:47 55° N 20:47:47 55° N
CZ-2D R/B 3.8 20:50:59 49° SW 20:51:41 58° W 20:55:32 10° NNW
Cosmos 158 Rocket 3.8 20:48:31 10° SSW 20:53:23 79° WNW 20:58:17 10° NNE
FENGYUN 3A 4.2 20:51:25 12° S 20:56:20 56° W 21:01:39 10° NNW
USA 215 3.4 20:53:08 13° NE 20:58:58 72° NW 21:05:27 10° WSW
H-2A R/B 3.9 21:03:23 39° WSW 21:03:53 41° W 21:07:35 10° NNW
GP-B 3.5 21:03:19 10° N 21:07:42 60° W 21:08:05 58° WSW
Cosmos 2279 Rocket 3.8 21:09:41 72° ESE 21:10:02 74° E 21:16:14 10° N
ERS-1 Rocket 3.5 21:15:36 49° N 21:15:36 49° N 21:19:19 10° N
H-2A R/B 4.5 21:23:11 15° N 21:23:11 15° N 21:24:04 10° N
Cosmos 1943 Rocket 2.4 21:16:29 10° NNW 21:21:09 60° N 21:21:09 60° N
Gbstr 26 Del rocket 3.8 21:18:11 10° WSW 21:22:26 61° NW 21:22:26 61° NW
Cosmos 1655 Rocket 4.0 21:18:21 10° N 21:24:34 75° W 21:25:30 63° SSW
CZ-3A R/B 4.5 20:47:28 10° SSW 21:25:53 58° SE 21:27:53 51° E
Cosmos 2369 Rocket 3.1 21:20:34 10° NW 21:25:56 44° WSW 21:27:10 39° SW
Cosmos 1110 Rocket 4.4 21:21:34 10° NNW 21:26:25 62° W 21:26:25 62° W
Cosmos 1943 4.2 21:21:49 10° SW 21:27:11 44° WNW 21:32:34 10° NNE
Cosmos 2026 Rocket 4.3 21:24:06 10° NNW 21:30:06 61° W 21:31:32 48° SW
Cosmos 1428 Rocket 4.5 21:26:32 10° N 21:32:19 77° NNW 21:32:19 77° NNW
BREEZE-M DEB (TANK) 4.4 21:51:57 10° WNW 21:57:17 38° WNW 21:57:17 38° WNW
CENTAUR R/B 4.1 22:03:47 10° WSW 22:09:22 33° NW 22:15:36 10° NNE
